GW3494 Weather Reports


Display with metric or nautical units.
time (UTC)temp
F
wind
direction
speed
MPH
gust
MPH
rain 1hr
in
rain 24hr
in
rain mn
in
humidity
%
barometer
mb
20260508002326 52 246 0.0 4.0 0.00 0.00 0.00 51 1012.0
20260508001822 52 40 2.0 2.0 0.00 0.00 0.00 53 1011.9
20260508001318 53 90 1.0 3.0 0.00 0.00 0.00 50 1011.7
20260508000815 53 290 2.0 3.0 0.00 0.00 0.00 50 1011.6
20260508000312 53 173 0.0 2.0 0.00 0.00 0.00 52 1011.8
20260507235808 53 15 0.0 2.0 0.00 0.00 0.00 49 1011.5
20260507235307 54 154 0.0 2.0 0.00 0.00 0.00 50 1011.7
20260507234802 53 63 1.0 3.0 0.00 0.00 0.00 47 1011.6
20260507234259 54 120 1.0 4.0 0.00 0.00 0.00 50 1011.4
20260507233755 54 243 1.0 3.0 0.00 0.00 0.00 48 1011.5
20260507233253 54 90 0.0 6.0 0.00 0.00 0.00 48 1011.5
20260507232751 54 180 1.0 3.0 0.00 0.00 0.00 47 1011.3
20260507232247 55 270 0.0 4.0 0.00 0.00 0.00 46 1011.3
20260507231744 56 248 5.0 6.0 0.00 0.00 0.00 43 1011.0
20260507231241 56 180 0.0 3.0 0.00 0.00 0.00 46 1011.2
20260507230737 57 265 4.0 4.0 0.00 0.00 0.00 43 1011.0
20260507230235 58 346 0.0 4.0 0.00 0.00 0.00 42 1011.1
20260507225734 58 292 3.0 5.0 0.00 0.00 0.00 43 1011.1
20260507225231 58 322 2.0 7.0 0.00 0.00 0.00 43 1010.9
20260507224726 59 243 1.0 6.0 0.00 0.00 0.00 45 1011.0
20260507224223 58 0 0.0 3.0 0.00 0.00 0.00 49 1011.1
20260507223719 57 74 0.0 2.0 0.00 0.00 0.00 49 1010.9
20260507223217 57 348 3.0 7.0 0.00 0.00 0.00 43 1010.9
20260507222713 57 0 0.0 2.0 0.00 0.00 0.00 49 1011.3
20260507222209 58 1 4.0 5.0 0.00 0.00 0.00 46 1010.9
20260507221706 59 266 3.0 3.0 0.00 0.00 0.00 44 1011.0
20260507221202 59 180 2.0 4.0 0.00 0.00 0.00 50 1010.8
20260507220659 60 36 2.0 6.0 0.00 0.00 0.00 44 1010.8
20260507220158 59 14 0.0 4.0 0.00 0.00 0.00 44 1010.6
20260507215653 60 286 1.0 3.0 0.00 0.00 0.00 45 1010.6
20260507215151 58 0 0.0 5.0 0.00 0.00 0.00 46 1010.6
20260507214648 60 66 3.0 4.0 0.00 0.00 0.00 42 1010.2
20260507214144 59 184 0.0 5.0 0.00 0.00 0.00 47 1010.2
20260507213640 57 243 3.0 7.0 0.00 0.00 0.00 45 1010.2
20260507213138 57 0 3.0 3.0 0.00 0.00 0.00 47 1010.2
20260507212634 59 0 1.0 2.0 0.00 0.00 0.00 46 1010.5
20260507212131 60 354 0.0 4.0 0.00 0.00 0.00 46 1010.2
20260507211628 60 203 0.0 3.0 0.00 0.00 0.00 44 1010.3
20260507211123 59 45 0.0 3.0 0.00 0.00 0.00 48 1010.3
20260507210621 58 59 3.0 5.0 0.00 0.00 0.00 48 1010.5
20260507210117 60 18 1.0 9.0 0.00 0.00 0.00 44 1010.2
20260507205614 59 180 0.0 4.0 0.00 0.00 0.00 47 1010.0
20260507205110 57 250 0.0 2.0 0.00 0.00 0.00 53 1010.3
20260507204607 58 341 2.0 5.0 0.00 0.00 0.00 47 1010.2
20260507204104 60 6 3.0 4.0 0.00 0.00 0.00 45 1010.1
20260507203602 60 172 0.0 5.0 0.00 0.00 0.00 43 1010.1
20260507203059 60 221 2.0 7.0 0.00 0.00 0.00 43 1010.2
20260507202555 59 239 6.0 13.0 0.00 0.00 0.00 46 1010.1
20260507202051 58 223 4.0 5.0 0.00 0.00 0.00 47 1010.0
20260507201547 59 222 5.0 9.0 0.00 0.00 0.00 45 1010.3
20260507201044 61 256 3.0 7.0 0.00 0.00 0.00 43 1010.6
20260507200539 61 258 3.0 12.0 0.00 0.00 0.00 46 1010.3
20260507200035 61 207 3.0 10.0 0.00 0.00 0.00 46 1010.1
20260507195533 64 213 2.0 7.0 0.00 0.00 0.00 47 1010.3
20260507195030 64 155 3.0 6.0 0.00 0.00 0.00 44 1010.3
20260507194526 65 250 2.0 2.0 0.00 0.00 0.00 43 1010.7
20260507194023 64 266 2.0 4.0 0.00 0.00 0.00 43 1010.5
20260507193520 64 220 8.0 13.0 0.00 0.00 0.00 42 1011.0
20260507193017 63 345 3.0 11.0 0.00 0.00 0.00 43 1011.0
20260507192513 64 225 3.0 4.0 0.00 0.00 0.00 50 1010.9
20260507192010 62 270 0.0 6.0 0.00 0.00 0.00 46 1010.9
20260507191505 60 105 2.0 2.0 0.00 0.00 0.00 49 1010.9
20260507191002 60 99 0.0 6.0 0.00 0.00 0.00 50 1010.9
20260507190500 61 235 0.0 5.0 0.00 0.00 0.00 53 1011.0
20260507185959 57 198 5.0 10.0 0.00 0.00 0.00 47 1011.1
20260507185455 59 225 3.0 9.0 0.00 0.00 0.00 48 1011.0
20260507184952 62 344 5.0 6.0 0.00 0.00 0.00 45 1010.9
20260507184450 63 274 5.0 5.0 0.00 0.00 0.00 45 1011.1
20260507183948 61 358 3.0 16.0 0.00 0.00 0.00 44 1011.2
20260507183444 63 286 0.0 3.0 0.00 0.00 0.00 49 1011.1
20260507182941 61 241 4.0 6.0 0.00 0.00 0.00 48 1011.2
20260507182437 63 0 2.0 3.0 0.00 0.00 0.00 46 1011.3
20260507181934 62 196 4.0 7.0 0.00 0.00 0.00 46 1011.2
20260507181430 63 195 0.0 3.0 0.00 0.00 0.00 48 1011.1
20260507180927 62 203 3.0 8.0 0.00 0.00 0.00 51 1011.3
20260507180424 59 149 3.0 4.0 0.00 0.00 0.00 55 1011.3
20260507175919 61 338 3.0 5.0 0.00 0.00 0.00 45 1011.2
20260507175416 62 353 10.0 10.0 0.00 0.00 0.00 45 1011.1
20260507174914 63 225 3.0 7.0 0.00 0.00 0.00 44 1011.5
20260507174411 62 270 0.0 8.0 0.00 0.00 0.00 48 1011.5
20260507173909 62 147 5.0 5.0 0.00 0.00 0.00 52 1011.4
20260507173406 61 95 2.0 6.0 0.00 0.00 0.00 46 1011.4
20260507172902 60 209 1.0 4.0 0.00 0.00 0.00 49 1011.5
20260507172359 58 184 3.0 9.0 0.00 0.00 0.00 47 1011.5
20260507171855 60 343 4.0 5.0 0.00 0.00 0.00 51 1011.6
20260507171351 60 66 1.0 4.0 0.00 0.00 0.00 51 1011.8
20260507170849 57 261 0.0 10.0 0.00 0.00 0.00 50 1011.6
20260507170345 59 255 1.0 3.0 0.00 0.00 0.00 55 1011.8
20260507165841 59 208 4.0 7.0 0.00 0.00 0.00 50 1011.8
20260507165337 59 173 1.0 6.0 0.00 0.00 0.00 54 1012.0
20260507164833 57 190 2.0 5.0 0.00 0.00 0.00 51 1011.9
20260507164330 57 166 1.0 3.0 0.00 0.00 0.00 54 1011.9
20260507163827 58 23 0.0 11.0 0.00 0.00 0.00 58 1012.0
20260507163325 57 0 2.0 6.0 0.00 0.00 0.00 57 1012.1
20260507162821 57 160 1.0 2.0 0.00 0.00 0.00 53 1012.1
20260507162317 59 140 2.0 2.0 0.00 0.00 0.00 50 1011.8
20260507161814 59 200 1.0 4.0 0.00 0.00 0.00 56 1012.2
20260507161311 57 255 0.0 2.0 0.00 0.00 0.00 55 1012.0
20260507160807 59 18 0.0 3.0 0.00 0.00 0.00 48 1012.1
20260507160303 56 36 2.0 3.0 0.00 0.00 0.00 55 1012.3
20260507155759 57 3 2.0 4.0 0.00 0.00 0.00 54 1012.3
20260507155255 55 169 2.0 5.0 0.00 0.00 0.00 52 1012.6
20260507154752 57 132 4.0 7.0 0.00 0.00 0.00 48 1012.7
20260507154250 57 143 2.0 4.0 0.00 0.00 0.00 59 1012.4
20260507153746 58 356 2.0 5.0 0.00 0.00 0.00 52 1012.4
20260507153242 58 169 0.0 5.0 0.00 0.00 0.00 54 1012.4
20260507152739 56 226 0.0 5.0 0.00 0.00 0.00 50 1012.6
20260507152236 58 243 5.0 5.0 0.00 0.00 0.00 56 1012.6
20260507151731 57 110 2.0 3.0 0.00 0.00 0.00 57 1012.4
20260507151228 58 246 2.0 4.0 0.00 0.00 0.00 56 1012.6
20260507150725 58 119 2.0 6.0 0.00 0.00 0.00 52 1012.7
20260507150222 56 180 1.0 7.0 0.00 0.00 0.00 59 1012.8
20260507145718 56 216 0.0 4.0 0.00 0.00 0.00 55 1012.8
20260507145215 56 129 2.0 2.0 0.00 0.00 0.00 54 1013.0
20260507144711 58 195 2.0 4.0 0.00 0.00 0.00 56 1013.0
20260507144209 56 80 4.0 5.0 0.00 0.00 0.00 52 1012.9
20260507143706 54 166 2.0 2.0 0.00 0.00 0.00 60 1013.0
20260507143203 53 81 0.0 3.0 0.00 0.00 0.00 62 1013.0
20260507142658 55 0 2.0 3.0 0.00 0.00 0.00 60 1012.9
20260507142155 54 119 2.0 2.0 0.00 0.00 0.00 67 1013.2
20260507141651 54 60 0.0 5.0 0.00 0.00 0.00 61 1013.0
20260507141148 55 227 0.0 3.0 0.00 0.00 0.00 64 1013.4
20260507140645 55 71 2.0 4.0 0.00 0.00 0.00 61 1013.2
20260507140142 54 147 2.0 3.0 0.00 0.00 0.00 59 1013.5
20260507135639 55 36 2.0 2.0 0.00 0.00 0.00 62 1013.4
20260507135137 55 14 2.0 3.0 0.00 0.00 0.00 62 1013.7
20260507134633 54 29 1.0 3.0 0.00 0.00 0.00 62 1013.6
20260507134129 54 216 3.0 5.0 0.00 0.00 0.00 63 1013.8
20260507133625 54 26 0.0 2.0 0.00 0.00 0.00 65 1013.8
20260507133123 52 52 3.0 5.0 0.00 0.00 0.00 62 1013.7
20260507132620 54 5 3.0 3.0 0.00 0.00 0.00 62 1013.8
20260507132116 54 118 3.0 4.0 0.00 0.00 0.00 65 1014.1
20260507131613 53 198 1.0 2.0 0.00 0.00 0.00 68 1013.9
20260507131110 52 139 4.0 5.0 0.00 0.00 0.00 69 1013.7
20260507130607 51 129 2.0 5.0 0.00 0.00 0.00 70 1014.0
20260507130105 51 135 4.0 4.0 0.00 0.00 0.00 72 1013.9
20260507125603 51 143 4.0 6.0 0.00 0.00 0.00 76 1013.9
20260507125100 50 110 2.0 7.0 0.00 0.00 0.00 75 1013.7
20260507124557 50 137 5.0 5.0 0.00 0.00 0.00 74 1013.8
20260507124055 50 142 5.0 6.0 0.00 0.00 0.00 78 1013.6
20260507123552 49 143 4.0 6.0 0.00 0.00 0.00 77 1013.5
20260507123049 49 131 3.0 6.0 0.00 0.00 0.00 79 1013.9
20260507122544 49 133 3.0 6.0 0.00 0.00 0.00 79 1013.6
20260507122040 48 135 3.0 5.0 0.00 0.00 0.00 79 1013.6
20260507121536 48 137 4.0 5.0 0.00 0.00 0.00 81 1013.6
20260507121032 48 134 5.0 5.0 0.00 0.00 0.00 81 1013.9
20260507120528 48 139 4.0 5.0 0.00 0.00 0.00 79 1013.7
20260507120026 48 144 3.0 5.0 0.00 0.00 0.00 79 1013.6
20260507115522 48 139 4.0 5.0 0.00 0.00 0.00 76 1013.8
20260507115018 48 141 4.0 4.0 0.00 0.00 0.00 79 1013.6
20260507114514 48 135 2.0 4.0 0.00 0.00 0.00 81 1013.7
20260507114011 48 135 3.0 4.0 0.00 0.00 0.00 82 1013.7
20260507113508 48 135 2.0 3.0 0.00 0.00 0.00 83 1013.5
20260507113006 47 138 3.0 4.0 0.00 0.00 0.00 84 1013.7
20260507112503 46 133 3.0 4.0 0.00 0.00 0.00 85 1013.6
20260507111959 46 140 3.0 5.0 0.00 0.00 0.00 84 1013.3
20260507111457 46 142 4.0 5.0 0.00 0.00 0.00 84 1013.1
20260507110953 46 132 2.0 3.0 0.00 0.00 0.00 83 1013.3
20260507110449 45 133 3.0 4.0 0.00 0.00 0.00 83 1013.2
20260507105946 46 125 2.0 3.0 0.00 0.00 0.00 83 1013.1
20260507105443 46 135 2.0 3.0 0.00 0.00 0.00 84 1013.0
20260507104940 44 109 2.0 3.0 0.00 0.00 0.00 85 1013.1
20260507104437 44 96 0.0 2.0 0.00 0.00 0.00 86 1012.9
20260507103932 44 123 1.0 2.0 0.00 0.00 0.00 85 1013.2
20260507103429 44 90 1.0 2.0 0.00 0.00 0.00 85 1013.0
20260507102925 44 66 0.0 2.0 0.00 0.00 0.00 85 1013.0
20260507102422 44 57 1.0 15.0 0.00 0.00 0.00 86 1012.8
20260507101919 44 246 1.0 2.0 0.00 0.00 0.00 86 1013.0
20260507101414 44 15 0.0 0.0 0.00 0.00 0.00 87 1012.9
20260507100910 44 15 0.0 0.0 0.00 0.00 0.00 88 1013.0
20260507100408 44 15 0.0 0.0 0.00 0.00 0.00 88 1012.9
20260507095906 44 345 0.0 0.0 0.00 0.00 0.00 88 1013.0
20260507095403 43 23 0.0 1.0 0.00 0.00 0.00 89 1012.8
20260507094900 44 0 0.0 1.0 0.00 0.00 0.00 90 1013.1
20260507094356 44 70 0.0 2.0 0.00 0.00 0.00 90 1012.8
20260507093853 44 29 0.0 1.0 0.00 0.00 0.00 90 1012.7
20260507093352 44 65 2.0 2.0 0.00 0.00 0.00 91 1012.7
20260507092849 44 15 0.0 1.0 0.00 0.00 0.00 90 1012.6
20260507092345 44 54 1.0 2.0 0.00 0.00 0.00 90 1012.8
20260507091842 44 54 0.0 2.0 0.00 0.00 0.00 90 1012.9
20260507091338 44 6 0.0 2.0 0.00 0.00 0.00 90 1012.7
20260507090834 44 18 0.0 2.0 0.00 0.00 0.00 89 1012.7
20260507090331 44 48 0.0 2.0 0.00 0.00 0.00 89 1012.7
20260507085828 44 29 2.0 2.0 0.00 0.00 0.00 89 1012.7
20260507085325 44 353 0.0 2.0 0.00 0.00 0.00 89 1012.8
20260507084822 44 345 0.0 1.0 0.00 0.00 0.00 90 1012.6
20260507084318 44 348 0.0 2.0 0.00 0.00 0.00 90 1012.8
20260507083816 44 40 1.0 1.0 0.00 0.00 0.00 91 1012.8
20260507083312 44 334 1.0 1.0 0.00 0.00 0.00 91 1012.7
20260507082808 45 54 0.0 1.0 0.00 0.00 0.00 91 1013.0
20260507082306 45 29 2.0 2.0 0.00 0.00 0.00 91 1013.0
20260507081801 45 29 0.0 1.0 0.00 0.00 0.00 91 1012.9
20260507081257 45 0 0.0 1.0 0.00 0.00 0.00 91 1012.9
20260507080754 45 306 0.0 2.0 0.00 0.00 0.00 92 1012.7
20260507080250 45 0 0.0 1.0 0.00 0.00 0.00 93 1012.8
20260507075746 45 49 0.0 1.0 0.00 0.00 0.00 93 1012.8
20260507075242 46 15 0.0 1.0 0.00 0.00 0.00 93 1012.9
20260507074738 46 54 0.0 1.0 0.00 0.00 0.00 92 1012.9
20260507074237 46 348 0.0 2.0 0.00 0.00 0.00 92 1012.8
20260507073733 46 23 0.0 1.0 0.00 0.00 0.00 92 1013.0
20260507073230 46 23 0.0 1.0 0.00 0.00 0.00 91 1012.7
20260507072728 46 353 1.0 2.0 0.00 0.00 0.00 92 1012.7
20260507072225 46 23 0.0 1.0 0.00 0.00 0.00 92 1012.7
20260507071722 46 300 1.0 2.0 0.00 0.00 0.00 93 1012.7
20260507071218 46 319 0.0 2.0 0.00 0.00 0.00 93 1012.9
20260507070715 47 0 0.0 1.0 0.00 0.00 0.00 92 1012.8
20260507070212 47 346 1.0 2.0 0.00 0.00 0.00 91 1012.6
20260507065709 47 5 1.0 2.0 0.00 0.00 0.00 91 1012.6
20260507065206 47 29 1.0 2.0 0.00 0.00 0.00 91 1012.7
20260507064703 47 15 0.0 2.0 0.00 0.00 0.00 91 1012.8
20260507064202 47 345 2.0 2.0 0.00 0.00 0.00 93 1012.9
20260507063659 47 0 1.0 2.0 0.00 0.00 0.00 94 1012.8
20260507063155 47 337 1.0 1.0 0.00 0.00 0.00 96 1012.8
20260507062652 47 15 0.0 0.0 0.00 0.00 0.00 96 1012.9
20260507062150 47 337 1.0 1.0 0.00 0.00 0.00 97 1012.7
20260507061648 47 352 0.0 1.0 0.00 0.00 0.00 97 1012.9
20260507061145 47 340 0.0 1.0 0.00 0.00 0.00 98 1012.6
20260507060643 47 23 0.0 1.0 0.00 0.00 0.00 98 1012.7
20260507060139 47 0 0.0 1.0 0.00 0.00 0.00 99 1012.7
20260507055635 47 74 0.0 1.0 0.00 0.00 0.00 99 1012.6
20260507055131 48 8 0.0 0.0 0.00 0.00 0.00 99 1013.0
20260507054627 48 15 0.0 0.0 0.00 0.00 0.00 99 1012.8
20260507054124 48 352 0.0 0.0 0.00 0.00 0.00 99 1012.8
20260507053622 48 346 0.0 0.0 0.00 0.00 0.00 99 1012.9
20260507053120 48 74 0.0 0.0 0.00 0.00 0.00 99 1013.0
20260507052618 48 15 0.0 0.0 0.00 0.00 0.00 99 1013.1
20260507052114 48 49 1.0 1.0 0.00 0.00 0.00 99 1013.2
20260507051612 48 352 0.0 0.0 0.00 0.00 0.00 99 1013.2
20260507051109 48 352 0.0 0.0 0.00 0.00 0.00 99 1013.3
20260507050605 48 352 0.0 0.0 0.00 0.00 0.00 99 1013.4
20260507045559 48 352 0.0 0.0 0.00 0.00 0.00 99 1013.5
20260507045056 48 352 0.0 0.0 0.00 0.00 0.00 99 1013.3
20260507044552 48 0 1.0 2.0 0.00 0.00 0.00 99 1013.4
20260507044050 48 23 1.0 2.0 0.00 0.00 0.00 99 1013.4
20260507043545 49 45 0.0 2.0 0.00 0.00 0.00 99 1013.4
20260507043043 49 0 0.0 2.0 0.00 0.00 0.00 99 1013.4
20260507042538 49 345 0.0 2.0 0.00 0.00 0.00 99 1013.1
20260507042034 49 81 0.0 0.0 0.00 0.00 0.00 99 1013.2
20260507041531 50 81 0.0 0.0 0.00 0.00 0.00 99 1013.2
20260507041028 50 237 0.0 0.0 0.00 0.00 0.00 99 1013.2
20260507040525 50 286 0.0 1.0 0.00 0.00 0.00 99 1013.2
20260507040020 50 303 1.0 1.0 0.00 0.48 0.48 97 1013.0
20260507035517 50 57 0.0 0.0 0.00 0.48 0.48 97 1013.1
20260507035013 50 345 0.0 0.0 0.00 0.48 0.48 96 1012.8
20260507034510 50 166 0.0 2.0 0.00 0.48 0.48 97 1012.8
20260507034008 49 229 0.0 2.0 0.00 0.48 0.48 98 1012.7
20260507033506 50 187 1.0 2.0 0.00 0.48 0.48 98 1012.8
20260507033003 50 200 0.0 2.0 0.00 0.48 0.48 97 1013.2
20260507032500 50 203 1.0 1.0 0.00 0.48 0.48 96 1013.1
20260507031956 50 195 0.0 2.0 0.00 0.48 0.48 94 1013.1
20260507031452 50 209 0.0 2.0 0.00 0.48 0.48 94 1012.9
20260507030949 50 203 0.0 2.0 0.00 0.48 0.48 95 1013.4
20260507030446 49 180 0.0 2.0 0.00 0.48 0.48 98 1013.4
20260507025943 49 194 1.0 1.0 0.00 0.48 0.48 99 1013.6
20260507025441 49 172 0.0 1.0 0.00 0.48 0.48 99 1013.1
20260507024939 49 165 0.0 1.0 0.00 0.48 0.48 99 1013.0
20260507024436 50 165 0.0 1.0 0.00 0.48 0.48 99 1012.9
20260507023931 50 172 0.0 1.0 0.00 0.48 0.48 99 1013.0
20260507023428 50 172 0.0 1.0 0.00 0.48 0.48 99 1013.1
20260507022925 50 172 0.0 1.0 0.00 0.48 0.48 99 1012.9
20260507022423 50 120 0.0 1.0 0.00 0.48 0.48 99 1012.7
20260507021918 50 180 0.0 1.0 0.00 0.48 0.48 99 1012.7
20260507021413 50 200 1.0 1.0 0.00 0.48 0.48 99 1012.8
20260507020912 50 173 1.0 2.0 0.00 0.48 0.48 99 1012.7
20260507020408 50 172 0.0 1.0 0.00 0.48 0.48 99 1012.9
20260507015905 50 160 0.0 1.0 0.00 0.48 0.48 99 1012.6
20260507015403 50 151 0.0 2.0 0.00 0.48 0.48 99 1012.3
20260507014900 50 165 0.0 1.0 0.00 0.48 0.48 99 1012.4
20260507014356 50 166 1.0 2.0 0.00 0.48 0.48 99 1012.6
20260507013853 50 180 0.0 1.0 0.00 0.48 0.48 99 1012.4
20260507013350 50 184 2.0 2.0 0.00 0.48 0.48 99 1012.7
20260507012847 50 185 1.0 2.0 0.00 0.48 0.48 98 1012.6
20260507012343 50 209 0.0 1.0 0.00 0.48 0.48 98 1012.1
20260507011840 50 172 0.0 1.0 0.00 0.48 0.48 98 1012.3
20260507011337 50 157 0.0 1.0 0.00 0.48 0.48 98 1012.4
20260507010831 50 345 0.0 0.0 0.00 0.48 0.48 98 1012.2
20260507010327 50 345 0.0 0.0 0.00 0.48 0.48 98 1012.2
20260507005825 50 345 0.0 0.0 0.00 0.48 0.48 98 1012.0
20260507005322 50 345 0.0 0.0 0.00 0.48 0.48 98 1012.0
20260507004819 50 345 0.0 0.0 0.00 0.48 0.48 98 1011.9
20260507004316 50 345 0.0 0.0 0.00 0.48 0.48 97 1011.9
20260507003813 50 60 0.0 1.0 0.00 0.48 0.48 97 1012.1
20260507003308 51 81 0.0 0.0 0.00 0.48 0.48 97 1012.0
20260507002803 51 81 0.0 0.0 0.00 0.48 0.48 97 1012.0